Weather in Apukhtino

Russia / Tver Oblast     57°01′34″N   38°09′02″E
temp.,
°C
wind,
m/s
gust,
m/s
humid.,
%
clouds,
%
prec.,
mm/h
press.,
hPa
HPBL,
m
6 may, thu
thu600:00+5ssw349821 0.0 100759
03:00+6sse349875 0.0 100780
06:00+7se499584 0.0 1005223
09:00+10sse51288100 0.0 1004410
12:00+16s91567100 0.1 10021619
15:00+16s9166390 0.3 10011780
18:00+13ssw101770100 0.4 10001824
21:00+7sw61287100 2.0 1004926
7 may, fri
fri700:00+6ssw51192100 0.1 1006462
03:00+5sw51194100 0.1 1007518
06:00+5sw51092100 0.0 1008675
09:00+8sw587110 0.0 10091014
12:00+12wsw694692 0.0 10102365
15:00+12sw710495 0.0 10101943
18:00+11sw6116931 0.5 10111246
21:00+8ssw387766 0.7 1011162
8 may, sat
sat800:00+7sse41084100 0.0 1011197
03:00+8sse51272100 0.0 1010411
06:00+8sse71565100 0.0 10081140
09:00+8sse71583100 1.0 10071320
12:00+8se81689100 2.1 10051373
15:00+8sse71392100 2.7 1003865
18:00+8sse51295100 1.3 1001651
21:00+8s51197100 3.5 1000536
9 may, sun
sun900:00+6ssw5119696 0.3 1001513
03:00+4wsw71295100 0.3 1003975
06:00+5wsw71393100 0.1 10071225
09:00+5w71186100 0.2 10111117
12:00+7wnw7971100 0.1 10151244
15:00+10nw685698 0.2 10171960
18:00+10nw47616 0.1 10201114
21:00+5wnw22733 0.1 102314
10 may, mon
mon1000:00+3w22740 0.0 102510
03:00+2wsw22735 0.0 102812
06:00+4sw237225 0.0 103068
09:00+10sw3455100 0.0 1030418
12:00+14sw45445 0.0 10301563
15:00+15wsw344015 0.0 10301737
18:00+15sw24545 0.0 1029277
21:00+9ssw22704 0.0 103014